This demonstration page uses our WeatherBlox Daily Observations layout. Learn more.

Left ArrowRight Arrow

39.92423, -83.80882

Hourly Observations for February 4, 2019

Temp ( °F °C ) Dew Point ( °F °C ) Humidity (%) Winds ( mph kmh ) Pressure ( in mb ) Visibility ( mi km ) Precip ( " mm )
12:56 am 00:56 Clear 48 8.9 40 4.4 74 74 SSW 7 11 29.97 1015 10 16 0.00 0.00
1:56 am 01:56 Clear 46 7.8 39 3.9 77 77 S 6 9 29.97 1015 10 16 0.00 0.00
3:56 am 03:56 Clear 46 7.8 41 5 83 83 S 7 11 29.96 1015 10 16 0.00 0.00
4:56 am 04:56 Clear 46 7.8 41 5 83 83 S 7 11 29.95 1014 10 16 0.00 0.00
5:56 am 05:56 Clear 45 7.2 42 5.6 90 90 SSW 7 11 29.96 1015 10 16 0.00 0.00
6:56 am 06:56 Clear 45 7.2 42 5.6 90 90 S 8 13 29.96 1015 10 16 0.00 0.00
7:56 am 07:56 Sunny 44 6.7 42 5.6 93 93 S 8 13 29.96 1015 10 16 0.00 0.00
8:56 am 08:56 Sunny 46 7.8 44 6.7 93 93 S 9 15 29.95 1014 10 16 0.00 0.00
9:56 am 09:56 Partly Cloudy 50 10 46 7.8 86 86 S 10 17 29.95 1014 10 16 0.00 0.00
10:56 am 10:56 Mostly Cloudy 54 12.2 48 8.9 80 80 S 10 17 29.94 1014 10 16 0.00 0.00
11:56 am 11:56 Mostly Cloudy 55 12.8 50 10 83 83 S 13 20 29.92 1013 10 16 0.00 0.00
12:56 pm 12:56 Mostly Sunny 57 13.9 51 10.6 81 81 S 10 17 29.88 1012 10 16 0.00 0.00
1:56 pm 13:56 Mostly Cloudy 57 13.9 51 10.6 81 81 S 10 17 29.88 1012 10 16 0.00 0.00
2:06 pm 14:06 Mostly Cloudy 57 14 52 11 82 82 S 8 13 29.86 1011 10 16 0.00 0.00
3:39 pm 15:39 Cloudy with Light Rain 54 12 54 12 100 100 SSW 7 11 29.85 1011 8 13 0.06 1.52
3:56 pm 15:56 Cloudy with Light Rain 53 11.7 53 11.7 100 100 S 7 11 29.86 1011 5 8 0.06 1.52
4:12 pm 16:12 Cloudy with Light Rain 54 12 54 12 100 100 S 10 17 29.85 1011 3 4 0.02 0.51
4:19 pm 16:19 Cloudy with Light Rain 54 12 52 11 94 94 S 9 15 29.85 1011 4 6 0.02 0.51
4:36 pm 16:36 Cloudy with Light Rain 54 12 54 12 100 100 S 9 15 29.85 1011 9 14 0.03 0.76
4:46 pm 16:46 Cloudy with Light Rain 52 11 52 11 100 100 S 9 15 29.86 1011 7 11 0.03 0.76
4:56 pm 16:56 Cloudy with Light Rain 53 11.7 53 11.7 100 100 S 10 17 29.85 1011 3 4 0.03 0.76
5:15 pm 17:15 Cloudy with Light Rain 52 11 52 11 100 100 S 9 15 29.86 1011 4 6 0.01 0.25
5:36 pm 17:36 Cloudy with Light Rain 52 11 52 11 100 100 S 13 20 29.85 1011 2 3 0.01 0.25
5:48 pm 17:48 Cloudy with Light Rain 54 12 54 12 100 100 S 13 20 29.84 1011 2 3 0.01 0.25
5:56 pm 17:56 Cloudy with Light Rain 53 11.7 53 11.7 100 100 S 10 17 29.85 1011 2 3 0.01 0.25
6:23 pm 18:23 Cloudy with Light Rain 54 12 54 12 100 100 SSW 10 17 29.85 1011 3 4 0.00 0.03
6:49 pm 18:49 Cloudy with Light Rain 54 12 54 12 100 100 SSW 9 15 29.86 1011 3 5 0.01 0.25
6:56 pm 18:56 Cloudy with Light Rain 53 11.7 53 11.7 100 100 SSW 12 19 29.87 1011 3 5 0.01 0.25
7:12 pm 19:12 Cloudy with Light Rain 54 12 54 12 100 100 SSW 12 19 29.86 1011 3 4 0.01 0.25
7:56 pm 19:56 Cloudy with Light Rain 52 11.1 52 11.1 100 100 SSW 12 19 29.88 1012 3 4 0.03 0.76
8:12 pm 20:12 Cloudy with Light Rain 54 12 54 12 100 100 SSW 10 17 29.86 1011 3 5 0.00 0.03
8:50 pm 20:50 Cloudy with Light Rain 52 11 52 11 100 100 SSW 12 19 29.87 1011 3 4 0.01 0.25
8:56 pm 20:56 Cloudy with Light Rain 52 11.1 52 11.1 100 100 SSW 12 19 29.87 1012 2 3 0.01 0.25
9:36 pm 21:36 Cloudy with Light Rain 52 11 52 11 100 100 SW 9 15 29.88 1012 2 3 0.00 0.03
9:56 pm 21:56 Cloudy with Light Rain 52 11.1 52 11.1 100 100 SSW 9 15 29.88 1012 1 2 0.01 0.25
10:14 pm 22:14 Cloudy with Light Rain 52 11 52 11 100 100 SSW 10 17 29.88 1012 1 2 0.00 0.03
10:36 pm 22:36 Cloudy with Light Rain 52 11 52 11 100 100 SSW 10 17 29.89 1012 1 2 0.00 0.03
10:47 pm 22:47 Cloudy with Light Rain 52 11 52 11 100 100 SSW 9 15 29.89 1012 1 2 0.00 0.03
10:56 pm 22:56 Cloudy with Light Rain 52 11.1 52 11.1 100 100 SSW 9 15 29.88 1012 1 1 0.00 0.03
11:04 pm 23:04 Cloudy with Light Rain 52 11 52 11 100 100 SSW 9 15 29.89 1012 1 1 0.00 0.03
11:56 pm 23:56 Cloudy with Light Rain 52 11.1 52 11.1 100 100 SW 7 11 29.90 1012 1 1 0.01 0.25

Powered by AerisWeather